When you browse on this site, cookies collect data to enhance your experience and personalize the content and advertising you see.
Visit our Privacy Policy to learn more. By continuing to use the site, you agree to this use of cookies and data.

Stündliche Wetter Baraki Barak

Heute, 12 August, Mittwoch

Zeit Temperatur Niederschläge Wind Luftdruck Luftfeuchtigkeit
00:00 +26°C° 0 mm 1 m/S 597 mmHg 27%
01:00 +25°C° 0 mm 1 m/S 597 mmHg 29%
02:00 +24°C° 0 mm 1 m/S 597 mmHg 32%
03:00 +24°C° 0 mm 1 m/S 596 mmHg 33%
04:00 +21°C° 0 mm 0 m/S 596 mmHg 34%
05:00 +20°C° 0 mm 0 m/S 596 mmHg 33%
06:00 +21°C° 0 mm 0 m/S 596 mmHg 31%
07:00 +23°C° 0 mm 0 m/S 597 mmHg 28%
08:00 +24°C° 0 mm 0 m/S 598 mmHg 25%
09:00 +27°C° 0 mm 1 m/S 598 mmHg 23%
10:00 +29°C° 0 mm 1 m/S 598 mmHg 20%
11:00 +30°C° 0 mm 1 m/S 599 mmHg 17%
12:00 +32°C° 0 mm 1 m/S 599 mmHg 14%
13:00 +34°C° 0 mm 2 m/S 599 mmHg 12%
14:00 +36°C° 0 mm 2 m/S 599 mmHg 9%
15:00 +36°C° 0 mm 3 m/S 599 mmHg 9%
16:00 +36°C° 0 mm 3 m/S 599 mmHg 9%
17:00 +37°C° 0 mm 3 m/S 598 mmHg 9%
18:00 +35°C° 0 mm 3 m/S 598 mmHg 11%
19:00 +33°C° 0 mm 3 m/S 598 mmHg 13%
20:00 +30°C° 0 mm 3 m/S 598 mmHg 15%
21:00 +28°C° 0 mm 2 m/S 597 mmHg 17%
22:00 +27°C° 0 mm 2 m/S 597 mmHg 19%
23:00 +26°C° 0 mm 1 m/S 597 mmHg 21%

Morgen, 13 August, Donnerstag

Zeit Temperatur Niederschläge Wind Luftdruck Luftfeuchtigkeit
00:00 +25°C° 0 mm 1 m/S 597 mmHg 23%
01:00 +24°C° 0 mm 1 m/S 596 mmHg 24%
02:00 +24°C° 0 mm 1 m/S 596 mmHg 26%
03:00 +23°C° 0 mm 1 m/S 596 mmHg 27%
04:00 +22°C° 0 mm 1 m/S 595 mmHg 27%
05:00 +19°C° 0 mm 0 m/S 595 mmHg 28%
06:00 +23°C° 0 mm 1 m/S 596 mmHg 26%
07:00 +24°C° 0 mm 1 m/S 597 mmHg 24%
08:00 +25°C° 0 mm 1 m/S 597 mmHg 22%
09:00 +26°C° 0 mm 1 m/S 598 mmHg 20%
10:00 +28°C° 0 mm 1 m/S 598 mmHg 18%
11:00 +29°C° 0 mm 1 m/S 598 mmHg 16%
12:00 +31°C° 0 mm 1 m/S 598 mmHg 14%
13:00 +32°C° 0 mm 2 m/S 598 mmHg 12%
14:00 +34°C° 0 mm 2 m/S 598 mmHg 9%
15:00 +35°C° 0 mm 2 m/S 598 mmHg 9%
16:00 +35°C° 0 mm 3 m/S 598 mmHg 8%
17:00 +36°C° 0 mm 3 m/S 598 mmHg 7%
18:00 +33°C° 0 mm 3 m/S 597 mmHg 9%
19:00 +30°C° 0 mm 3 m/S 597 mmHg 11%
20:00 +28°C° 0 mm 3 m/S 596 mmHg 12%
21:00 +27°C° 0 mm 2 m/S 596 mmHg 14%
22:00 +26°C° 0 mm 2 m/S 596 mmHg 16%
23:00 +25°C° 0 mm 1 m/S 596 mmHg 18%

übermorgen, 14 August, Freitag

Zeit Temperatur Niederschläge Wind Luftdruck Luftfeuchtigkeit
00:00 +24°C° 0 mm 1 m/S 596 mmHg 19%
01:00 +23°C° 0 mm 1 m/S 596 mmHg 20%
02:00 +23°C° 0 mm 1 m/S 595 mmHg 22%
03:00 +22°C° 0 mm 1 m/S 595 mmHg 23%
04:00 +21°C° 0 mm 1 m/S 595 mmHg 24%
05:00 +21°C° 0 mm 1 m/S 594 mmHg 24%
06:00 +22°C° 0 mm 1 m/S 595 mmHg 22%
07:00 +23°C° 0 mm 1 m/S 596 mmHg 21%
08:00 +24°C° 0 mm 1 m/S 596 mmHg 19%
09:00 +26°C° 0 mm 1 m/S 597 mmHg 17%
10:00 +27°C° 0 mm 1 m/S 597 mmHg 15%
11:00 +29°C° 0 mm 1 m/S 597 mmHg 14%
12:00 +30°C° 0 mm 1 m/S 597 mmHg 12%
13:00 +32°C° 0 mm 1 m/S 597 mmHg 9%
14:00 +33°C° 0 mm 1 m/S 598 mmHg 7%
15:00 +35°C° 0 mm 2 m/S 597 mmHg 7%
16:00 +35°C° 0 mm 2 m/S 597 mmHg 6%
17:00 +36°C° 0 mm 3 m/S 597 mmHg 6%
18:00 +34°C° 0 mm 3 m/S 597 mmHg 8%
19:00 +31°C° 0 mm 3 m/S 597 mmHg 10%
20:00 +29°C° 0 mm 3 m/S 596 mmHg 12%
21:00 +28°C° 0 mm 2 m/S 596 mmHg 14%
22:00 +27°C° 0 mm 2 m/S 596 mmHg 16%
23:00 +25°C° 0 mm 1 m/S 596 mmHg 19%

15 August, Samstag

Zeit Temperatur Niederschläge Wind Luftdruck Luftfeuchtigkeit
00:00 +25°C° 0 mm 1 m/S 595 mmHg 21%
01:00 +24°C° 0 mm 1 m/S 595 mmHg 23%
02:00 +23°C° 0 mm 1 m/S 595 mmHg 25%
03:00 +22°C° 0 mm 1 m/S 594 mmHg 25%
04:00 +22°C° 0 mm 1 m/S 594 mmHg 26%
05:00 +19°C° 0 mm 0 m/S 594 mmHg 27%
06:00 +22°C° 0 mm 1 m/S 594 mmHg 24%
07:00 +23°C° 0 mm 1 m/S 595 mmHg 22%
08:00 +25°C° 0 mm 1 m/S 596 mmHg 20%
09:00 +26°C° 0 mm 1 m/S 596 mmHg 18%
10:00 +28°C° 0 mm 1 m/S 597 mmHg 16%
11:00 +30°C° 0 mm 1 m/S 597 mmHg 14%
12:00 +31°C° 0 mm 1 m/S 597 mmHg 11%
13:00 +33°C° 0 mm 1 m/S 597 mmHg 9%
14:00 +35°C° 0 mm 2 m/S 597 mmHg 7%
15:00 +35°C° 0 mm 2 m/S 597 mmHg 7%
16:00 +36°C° 0 mm 2 m/S 597 mmHg 6%
17:00 +36°C° 0 mm 3 m/S 597 mmHg 6%
18:00 +34°C° 0 mm 3 m/S 597 mmHg 8%
19:00 +33°C° 0 mm 3 m/S 597 mmHg 10%
20:00 +30°C° 0 mm 3 m/S 596 mmHg 12%
21:00 +29°C° 0 mm 2 m/S 596 mmHg 15%
22:00 +27°C° 0 mm 1 m/S 596 mmHg 17%
23:00 +26°C° 0 mm 1 m/S 596 mmHg 20%

16 August, Sonntag

Zeit Temperatur Niederschläge Wind Luftdruck Luftfeuchtigkeit
00:00 +25°C° 0 mm 1 m/S 596 mmHg 22%
01:00 +24°C° 0 mm 1 m/S 595 mmHg 23%
02:00 +24°C° 0 mm 1 m/S 595 mmHg 25%
03:00 +23°C° 0 mm 1 m/S 595 mmHg 25%
04:00 +22°C° 0 mm 1 m/S 595 mmHg 24%
05:00 +19°C° 0 mm 0 m/S 595 mmHg 24%
06:00 +21°C° 0 mm 0 m/S 595 mmHg 21%
07:00 +24°C° 0 mm 1 m/S 596 mmHg 18%
08:00 +26°C° 0 mm 1 m/S 597 mmHg 15%
09:00 +28°C° 0 mm 1 m/S 597 mmHg 14%
10:00 +29°C° 0 mm 1 m/S 598 mmHg 12%
11:00 +31°C° 0 mm 1 m/S 598 mmHg 11%
12:00 +32°C° 0 mm 1 m/S 598 mmHg 9%
13:00 +34°C° 0 mm 1 m/S 598 mmHg 7%
14:00 +35°C° 0 mm 1 m/S 598 mmHg 6%
15:00 +36°C° 0 mm 2 m/S 598 mmHg 5%
16:00 +37°C° 0 mm 2 m/S 598 mmHg 5%
17:00 +37°C° 0 mm 3 m/S 598 mmHg 5%
18:00 +35°C° 0 mm 3 m/S 598 mmHg 6%
19:00 +33°C° 0 mm 3 m/S 597 mmHg 8%
20:00 +30°C° 0 mm 3 m/S 597 mmHg 10%
21:00 +29°C° 0 mm 2 m/S 597 mmHg 13%
22:00 +28°C° 0 mm 2 m/S 597 mmHg 15%
23:00 +26°C° 0 mm 1 m/S 597 mmHg 17%

17 August, Montag

Zeit Temperatur Niederschläge Wind Luftdruck Luftfeuchtigkeit
00:00 +26°C° 0 mm 1 m/S 596 mmHg 19%
01:00 +25°C° 0 mm 1 m/S 596 mmHg 20%
02:00 +24°C° 0 mm 1 m/S 595 mmHg 22%
03:00 +23°C° 0 mm 1 m/S 595 mmHg 21%
04:00 +23°C° 0 mm 1 m/S 595 mmHg 21%
05:00 +22°C° 0 mm 1 m/S 594 mmHg 21%
06:00 +24°C° 0 mm 1 m/S 595 mmHg 19%
07:00 +25°C° 0 mm 1 m/S 596 mmHg 17%
08:00 +27°C° 0 mm 1 m/S 597 mmHg 15%
09:00 +28°C° 0 mm 1 m/S 597 mmHg 13%
10:00 +30°C° 0 mm 1 m/S 598 mmHg 12%
11:00 +32°C° 0 mm 1 m/S 598 mmHg 11%
12:00 +33°C° 0 mm 1 m/S 598 mmHg 10%
13:00 +34°C° 0 mm 1 m/S 598 mmHg 9%
14:00 +35°C° 0 mm 1 m/S 598 mmHg 8%
15:00 +37°C° 0 mm 2 m/S 598 mmHg 8%
16:00 +37°C° 0 mm 3 m/S 598 mmHg 8%
17:00 +37°C° 0 mm 3 m/S 598 mmHg 7%
18:00 +36°C° 0 mm 3 m/S 597 mmHg 9%
19:00 +34°C° 0 mm 3 m/S 597 mmHg 11%
20:00 +31°C° 0 mm 3 m/S 597 mmHg 13%
21:00 +30°C° 0 mm 2 m/S 597 mmHg 16%
22:00 +28°C° 0 mm 2 m/S 597 mmHg 18%
23:00 +27°C° 0 mm 1 m/S 596 mmHg 21%
Mehr zeigen